Fairbanks, AK

5:21 PM AKST on January 16, 2018 (GMT -0900)
Fairbanks International

Weather History for PAFA - June, 2013

Change the Weather History Date:

Tuesday, June 18, 2013

  Actual Average Record
Temperature  
Mean Temperature 73 °F 62 °F  
Max Temperature 86 °F 73 °F 91 °F (1967)
Min Temperature 59 °F 51 °F 35 °F (1925)
Degree Days  
Heating Degree Days 0 4  
Month to date heating degree days 71 118  
Since 1 June heating degree days 71 118  
Since 1 July heating degree days 14876 13627  
Cooling Degree Days 8 1  
Month to date cooling degree days 38 5  
Year to date cooling degree days 51 6  
Since 1 June cooling degree days 38 5  
Growing Degree Days 22 (Base 50)    
Moisture  
Dew Point 40 °F    
Average Humidity 28    
Maximum Humidity 46    
Minimum Humidity 11    
Precipitation  
Precipitation 0.00 in 0.05 in 0.79 in (1931)
Month to date precipitation 0.34 0.72  
Year to date precipitation 2.68 2.88  
Snow  
Snow 0.00 in 0.00 in 0.00 in (2002)
Month to date snowfall 0.0 0.0  
Since 1 June snowfall 0.0 0.0  
Since 1 July snowfall 68.6 65.0  
Snow Depth 0.00 in    
Sea Level Pressure  
Sea Level Pressure 29.99 in    
Wind  
Wind Speed 8 mph (East)    
Max Wind Speed 12 mph    
Max Gust Speed 16 mph    
Visibility 10 miles    
Events      
T = Trace of Precipitation, MM = Missing Value Source: NWS Daily Summary

Daily Weather History Graph

Daily Weather History Graph

Search for Another Location

Airport or City:

Trip Planner

Search our weather history database for the weather conditions in past years. The results will help you decide how hot, cold, wet, or windy it might be!

Date:

Astronomy

Jun. 18, 2013 Rise Set
Actual Time 2:59 AM AKDT 12:46 AM AKDT
Civil Twilight Sun does not rise Sun does not rise
Nautical Twilight Sun does not rise Sun does not rise
Astronomical Twilight Sun does not rise Sun does not rise
Moon 5:28 PM AKDT (6/18) 1:44 AM AKDT (6/18)
Length of Visible Light 24h 00m
Length of Day
21h 46m
Waxing Gibbous, 72% of the Moon is Illuminated
Jun 18
Waxing Gibbous
Jun 23
Full
Jun 29
Last Quarter
Jul 7
New
Jul 15
First Quarter

Hourly Weather History & Observations

Time (AKDT) Temp. Dew Point Humidity Pressure Visibility Wind Dir Wind Speed Gust Speed Precip Events Conditions
12:53 AM 69.1 °F 37.9 °F 32% 30.10 in 10.0 mi North 11.5 mph - N/A   Mostly Cloudy
1:53 AM 66.0 °F 39.9 °F 38% 30.09 in 10.0 mi NNE 10.4 mph - N/A   Mostly Cloudy
2:53 AM 64.0 °F 37.9 °F 38% 30.09 in 10.0 mi North 9.2 mph - N/A   Mostly Cloudy
3:53 AM 63.0 °F 39.0 °F 41% 30.08 in 10.0 mi NNE 4.6 mph - N/A   Mostly Cloudy
4:53 AM 61.0 °F 39.9 °F 46% 30.08 in 10.0 mi NNE 4.6 mph - N/A   Mostly Cloudy
5:53 AM 64.0 °F 41.0 °F 43% 30.08 in 10.0 mi NNE 4.6 mph - N/A   Mostly Cloudy
6:53 AM 66.9 °F 43.0 °F 42% 30.08 in 10.0 mi ENE 4.6 mph - N/A   Mostly Cloudy
7:53 AM 69.1 °F 43.0 °F 39% 30.07 in 10.0 mi Calm Calm - N/A   Scattered Clouds
8:53 AM 73.0 °F 42.1 °F 33% 30.06 in 10.0 mi East 8.1 mph - N/A   Partly Cloudy
9:53 AM 73.9 °F 39.9 °F 29% 30.05 in 10.0 mi East 8.1 mph - N/A   Partly Cloudy
10:53 AM 75.9 °F 39.9 °F 27% 30.04 in 10.0 mi ESE 5.8 mph - N/A   Partly Cloudy
11:53 AM 78.1 °F 41.0 °F 27% 30.02 in 10.0 mi SE 9.2 mph - N/A   Partly Cloudy
12:53 PM 79.0 °F 39.9 °F 25% 30.01 in 10.0 mi East 6.9 mph - N/A   Partly Cloudy
1:53 PM 82.0 °F 39.0 °F 22% 29.99 in 10.0 mi SE 10.4 mph 16.1 mph N/A   Partly Cloudy
2:53 PM 82.9 °F 37.9 °F 20% 29.96 in 10.0 mi SE 10.4 mph - N/A   Partly Cloudy
3:53 PM 84.0 °F 37.9 °F 19% 29.93 in 10.0 mi ESE 10.4 mph - N/A   Partly Cloudy
4:53 PM 84.9 °F 39.0 °F 20% 29.91 in 10.0 mi ESE 6.9 mph - N/A   Partly Cloudy
5:53 PM 86.0 °F 39.9 °F 20% 29.89 in 10.0 mi East 9.2 mph - N/A   Partly Cloudy
6:53 PM 86.0 °F 39.9 °F 20% 29.88 in 10.0 mi ESE 10.4 mph - N/A   Partly Cloudy
7:53 PM 84.9 °F 41.0 °F 21% 29.87 in 10.0 mi SE 5.8 mph - N/A   Partly Cloudy
8:53 PM 82.9 °F 44.1 °F 25% 29.86 in 10.0 mi SSE 6.9 mph - N/A   Partly Cloudy
9:53 PM 81.0 °F 43.0 °F 26% 29.86 in 10.0 mi SSE 8.1 mph - N/A   Partly Cloudy
10:53 PM 77.0 °F 44.1 °F 31% 29.88 in 10.0 mi ESE 5.8 mph - N/A   Partly Cloudy
11:53 PM 73.9 °F 43.0 °F 33% 29.88 in 10.0 mi East 5.8 mph - N/A   Partly Cloudy